Printer-friendly version

IAU Minor Planet Center

Minor Planet Center

MPEC 2008-W36 : 2008 WF14

The following Minor Planet Electronic Circular may be linked-to from your own Web pages, but must not otherwise be redistributed electronically.


Read MPEC 2008-W35 Read MPEC 2008-W37


M.P.E.C. 2008-W36                                Issued 2008 Nov. 21, 16:18 UT

     The Minor Planet Electronic Circulars contain information on unusual
         minor planets and routine data on comets.  They are published
   on behalf of Commission 20 of the International Astronomical Union by the
          Minor Planet Center, Smithsonian Astrophysical Observatory,
                          Cambridge, MA 02138, U.S.A.

             Prepared using the Tamkin Foundation Computer Network

                              MPC@CFA.HARVARD.EDU
          URL http://www.cfa.harvard.edu/iau/mpc.html  ISSN 1523-6714

                                   2008 WF14

Observations:
     K08W14F* C2008 11 21.20556 04 08 25.67 +20 29 21.5          20.8 V EW036691
     K08W14F  C2008 11 21.22324 04 08 28.57 +20 28 13.2          20.5 V EW036691
     K08W14F  C2008 11 21.24092 04 08 31.41 +20 27 04.7          20.5 V EW036691
     K08W14F  C2008 11 21.29517 04 08 40.05 +20 23 32.4          20.5 V EW036291
     K08W14F  C2008 11 21.29942 04 08 40.73 +20 23 15.4          20.6 V EW036291
     K08W14F  C2008 11 21.30362 04 08 41.37 +20 22 58.6          20.7 V EW036291
     K08W14F tC2008 11 21.34971 04 08 48.64 +20 19 55.6          20.5 V EW036291
     K08W14F tC2008 11 21.35375 04 08 49.27 +20 19 39.8                 EW036291
     K08W14F tC2008 11 21.35781 04 08 49.95 +20 19 23.3                 EW036291
     K08W14F  C2008 11 21.38763 04 08 53.77 +20 17 11.0          20.0 R EW036H36
     K08W14F  C2008 11 21.39413 04 08 54.88 +20 16 43.4          19.8 R EW036H36
     K08W14F tC2008 11 21.44180 04 09 03.43 +20 13 45.9                 EW036291
     K08W14F tC2008 11 21.44592 04 09 04.12 +20 13 29.2                 EW036291
     K08W14F tC2008 11 21.44997 04 09 04.80 +20 13 12.8          20.7 V EW036291
     K08W14F  C2008 11 21.47511 04 09 08.98 +20 11 30.9                 EW036291
     K08W14F  C2008 11 21.47905 04 09 09.71 +20 11 13.8                 EW036291
     K08W14F  C2008 11 21.48293 04 09 10.34 +20 10 57.9          20.6 V EW036291

Observer details:
291 LPL/Spacewatch II.  Observer R. S. McMillan.  1.8-m f/2.7 reflector + CCD.
691 Steward Observatory, Kitt Peak.  Observer R. S. McMillan.  0.9-m f/3
    reflector + CCD.
H36 Sandlot Observatory, Scranton.  Observer G. Hug.  0.56-m reflector + CCD.

Orbital elements:
2008 WF14                                                Earth MOID = 0.0882 AU
Epoch 2008 Nov. 30.0 TT = JDT 2454800.5                 MPC
M  16.32332              (2000.0)            P               Q
n   0.51214243     Peri.  157.20956     +0.80214612     -0.58815046
a   1.5471849      Node   239.22328     +0.52769023     +0.77906198
e   0.3076832      Incl.    6.89569     +0.27947203     +0.21712086
P   1.92           H   24.8           G   0.15           U   9
Residuals in seconds of arc
081121 691  0.0   0.3-    081121 291  0.2+  0.2-    081121 291  0.1+  0.3+
081121 691  0.0   0.1-    081121 291  0.1+  0.1+    081121 291  0.2+  0.4+
081121 691  0.3-  0.2+    081121 291  0.6+  0.2-    081121 291  0.6-  0.5+
081121 291  0.1-  0.4+    081121 H36  0.2+  0.1-    081121 291  0.2+  0.5-
081121 291  0.1+  0.2+    081121 H36  0.6+  1.4-    081121 291  0.3-  0.7-
081121 291  0.2-  0.1-    081121 291  0.0   0.3+

Ephemeris:
2008 WF14                a,e,i = 1.55, 0.31, 7                   q = 1.0711
Date    TT    R. A. (2000) Decl.     Delta      r     Elong.  Phase     V
2008 11 20    04 04.42   +21 51.1    0.102    1.090   174.5     5.0    20.5
2008 11 21    04 07.72   +20 43.4    0.104    1.091   175.0     4.5    20.5
2008 11 22    04 10.83   +19 37.9    0.106    1.093   175.3     4.2    20.5
2008 11 23    04 13.78   +18 34.7    0.108    1.095   175.3     4.3    20.5
2008 11 24    04 16.56   +17 33.7    0.110    1.097   175.0     4.5    20.6
2008 11 25    04 19.19   +16 35.2    0.112    1.099   174.4     5.0    20.7
2008 11 26    04 21.67   +15 39.1    0.115    1.101   173.8     5.6    20.8
2008 11 27    04 24.02   +14 45.5    0.117    1.103   173.0     6.2    20.8
2008 11 28    04 26.24   +13 54.3    0.120    1.105   172.2     6.9    20.9
2008 11 29    04 28.35   +13 05.5    0.122    1.108   171.4     7.6    21.0
2008 11 30    04 30.35   +12 19.2    0.125    1.110   170.6     8.4    21.1
2008 12 01    04 32.25   +11 35.3    0.128    1.112   169.8     9.1    21.2
2008 12 02    04 34.05   +10 53.7    0.131    1.115   168.9     9.8    21.3
2008 12 03    04 35.77   +10 14.4    0.134    1.117   168.1    10.5    21.3
2008 12 04    04 37.40   +09 37.3    0.137    1.120   167.3    11.1    21.4
2008 12 05    04 38.97   +09 02.4    0.140    1.122   166.5    11.8    21.5
2008 12 06    04 40.46   +08 29.6    0.144    1.125   165.8    12.4    21.6
2008 12 07    04 41.89   +07 58.8    0.147    1.128   165.0    13.1    21.7
2008 12 08    04 43.27   +07 30.1    0.151    1.131   164.3    13.7    21.7
2008 12 09    04 44.59   +07 03.2    0.154    1.133   163.5    14.2    21.8
2008 12 10    04 45.86   +06 38.1    0.158    1.136   162.8    14.8    21.9

Timothy B. Spahr             (C) Copyright 2008 MPC           M.P.E.C. 2008-W36

Read MPEC 2008-W35 Read MPEC 2008-W37


Our Web policy. Index to the CBAT/MPC/ICQ pages.


Valid HTML 4.01!